World > North America > United States > California > Loomis   Town of Loomis, CA

Loomis, CA Hourly Weather Forecast

Feedback E-mail the Weather

Quick Clicks

Weather World

24 Hour Forecast

Current Conditions - Clear. Temperature is 60°F16°C, dew point 48°F9°C, humidity 63%. Wind direction is E at 6 mph10 km/h with visibility of 9 mi14 km. Barometric pressure is 29.95 in1014 mb.
Today - Mostly sunny. Highs 76 to 83. Southwest winds up to 10 mph... Full Forecast
Tonight - Mostly clear. Lows 50 to 56. South winds up to 10 mph... Full Forecast

Loomis Hourly Weather

24 Hour Weather Scroll
Fri, Apr 19
8:00 am
Fri, Apr 19
9:00 am
Fri, Apr 19
10:00 am
Fri, Apr 19
11:00 am
Fri, Apr 19
Noon
Fri, Apr 19
1:00 pm
Fri, Apr 19
2:00 pm
Fri, Apr 19
3:00 pm
Fri, Apr 19
4:00 pm
Fri, Apr 19
5:00 pm
Fri, Apr 19
6:00 pm
Fri, Apr 19
7:00 pm
Fri, Apr 19
8:00 pm
Fri, Apr 19
9:00 pm
Fri, Apr 19
10:00 pm
Fri, Apr 19
11:00 pm
Sat, Apr 20
Midnight
Sat, Apr 20
1:00 am
Sat, Apr 20
2:00 am
Sat, Apr 20
3:00 am
Sat, Apr 20
4:00 am
Sat, Apr 20
5:00 am
Sat, Apr 20
6:00 am
Sat, Apr 20
7:00 am
SunnySunnySunnySunnySunnySunnySunnySunnySunnySunnySunnySunnyClear Clear Clear Clear Clear Clear Clear Clear Clear Clear Clear Partly Cloudy
Sunny Sunny Sunny Sunny Sunny Sunny Sunny Sunny Sunny Sunny Sunny Sunny Clear Clear Clear Clear Clear Clear Clear Clear Clear Clear Clear Partly Cloudy
59°F15°C 65°F18°C 68°F20°C 71°F22°C 74°F23°C 76°F24°C 77°F25°C 78°F25°C 78°F26°C 78°F25°C 75°F24°C 71°F22°C 67°F20°C 65°F18°C 63°F17°C 61°F16°C 60°F16°C 59°F15°C 59°F15°C 58°F14°C 56°F14°C 55°F13°C 55°F13°C 56°F13°C
52°F
11°C
53°F
12°C
55°F
13°C
56°F
14°C
57°F
14°C
57°F
14°C
57°F
14°C
55°F
13°C
55°F
13°C
55°F
13°C
57°F
14°C
58°F
15°C
57°F
14°C
55°F
13°C
54°F
12°C
54°F
12°C
53°F
12°C
52°F
11°C
51°F
11°C
50°F
10°C
48°F
9°C
47°F
8°C
46°F
8°C
46°F
8°C
29.94 in
1014 mb
29.91 in
1013 mb
29.91 in
1013 mb
29.91 in
1013 mb
29.91 in
1013 mb
29.88 in
1012 mb
29.88 in
1012 mb
29.88 in
1012 mb
29.85 in
1011 mb
29.85 in
1011 mb
29.85 in
1011 mb
29.85 in
1011 mb
29.85 in
1011 mb
29.88 in
1012 mb
29.91 in
1013 mb
29.91 in
1013 mb
29.91 in
1013 mb
29.91 in
1013 mb
29.91 in
1013 mb
29.91 in
1013 mb
29.94 in
1014 mb
29.94 in
1014 mb
29.97 in
1015 mb
30 in
1016 mb
67%67%63%59%55%52%48%45%44%44%49%61%70%73%75%78%78%77%76%74%74%74%74%73%
EWNWWNWWWWWWNWWWWSWSWSSWSSESESESESESESESESESESSE
9 mph
15 km/h
1 mph
1 km/h
3 mph
4 km/h
3 mph
5 km/h
4 mph
6 km/h
4 mph
6 km/h
5 mph
8 km/h
5 mph
8 km/h
4 mph
6 km/h
3 mph
5 km/h
3 mph
5 km/h
4 mph
7 km/h
5 mph
8 km/h
5 mph
8 km/h
5 mph
9 km/h
6 mph
10 km/h
6 mph
9 km/h
6 mph
9 km/h
6 mph
9 km/h
6 mph
9 km/h
6 mph
10 km/h
6 mph
10 km/h
6 mph
9 km/h
6 mph
9 km/h
0%0%0%0%0%0%0%0%0%0%0%0%0%0%0%0%0%0%0%0%0%0%0%0%
10 mi
16 km
6 mi
10 km
6 mi
10 km
6 mi
10 km
6 mi
10 km
6 mi
10 km
6 mi
10 km
6 mi
10 km
6 mi
10 km
6 mi
10 km
6 mi
10 km
6 mi
10 km
6 mi
10 km
6 mi
10 km
6 mi
10 km
6 mi
10 km
6 mi
10 km
6 mi
10 km
6 mi
10 km
6 mi
10 km
6 mi
10 km
6 mi
10 km
6 mi
10 km
6 mi
10 km

Day/Time
Weather
Condition
Temperature
Dew Point
Pressure
Humidity
Wind Direction
Wind Speed
Prob Precip %
Visibility
POP = Probability of Precipitation. ** Indicates missing data/values from KAUN model statistics.

Trending Headlines

Trending Entertainment Headlines

Loomis Radar Loop

Use the map search tool if you want to place a location marker on the radar map...

48 Hour API Forecast

Prob Precip % = Probability of Precipitation.

Loomis 36 Hour Forecast

POP = Probability of Precipitation. ** Indicates missing data/values from model statistics.

E-mail the Loomis Weather Forecast

Voice your opinion or tell us about page issues...

Loomis CA Weather - 11:14 am

What are people saying?

Contact Us